Regional Weather Roundup
Issued by NWS Newport/Morehead, NC

Current Version | Previous Version | Graphics & Text | Print | Product List | Glossary Off
Versions: 1 2 3 4 5 6 7 8 9 10 11 12 13 14 15 16 17 18 19 20 21 22 23 24 25 26 27 28 29 30 31 32 33 34 35 36 37 38 39 40 41 42 43 44 45 46 47 48 49 50

000
ASUS42 KMHX 260125
RWRMHX
WEATHER ROUNDUP FOR EASTERN NORTH CAROLINA
NATIONAL WEATHER SERVICE NEWPORT/MOREHEAD CITY NC
800 PM EST SAT FEB 25 2017

NOTE: "FAIR" INDICATES FEW OR NO CLOUDS BELOW 12,000 FEET
WITH NO SIGNIFICANT WEATHER AND/OR OBSTRUCTIONS TO VISIBILITY

NCZ015>017-031-032-045>047-102-103-260200-
NORTH COAST

CITY           SKY/WX    TMP DP  RH WIND       PRES   REMARKS
EDENTON        MOCLDY    68  51  54 NW21G28   29.65R
ELIZABETH CITY PTCLDY    67  53  61 NW20G32   29.63R
KITTY HAWK     NOT AVBL
MANTEO         CLEAR     65  59  81 SW17      29.61R

$$

NCZ045>047-081-094-103-104-260200-
CENTRAL COAST

CITY           SKY/WX    TMP DP  RH WIND       PRES   REMARKS
FRISCO         CLEAR     70  61  73 SW22G33   29.65R HAZE

$$

NCZ095-097-098-100-101-260200-
SOUTHERN COAST

CITY           SKY/WX    TMP DP  RH WIND       PRES   REMARKS
BEAUFORT       CLEAR     66  60  81 SW21G30   29.69R
CEDAR ISLAND   NOT AVBL
JACKSONVILLE   PTCLDY    67  60  78 SW7       29.68R
PINEY ISLAND   CLEAR    N/A N/A N/A SW20G28   29.67R
WILMINGTON     CLEAR     65  59  81 SW10      29.71R


$$

NCZ011>013-027>030-043-044-078>080-089-090>093-098-260200-
COASTAL PLAIN

CITY           SKY/WX    TMP DP  RH WIND       PRES   REMARKS
AHOSKIE          N/A     60  46  59 CALM      29.68R
CLINTON        CLEAR     72  33  24 W14G21    29.71R
ELIZABETHTOWN  CLEAR     72  44  37 W14       29.72R
GOLDSBORO      CLEAR     72  51  46 SW17G23   29.63R
GREENVILLE     CLEAR     72  54  53 SW10G17   29.68R
HAVELOCK       NOT AVBL
KENANSVILLE    CLEAR     72  48  43 W13       29.69R
KINSTON        PTCLDY    72  54  53 SW10G17   29.66R
NEW BERN       PTCLDY    66  59  78 SW10      29.67R
RICHLANDS      MOCLDY    66  58  75 S8        29.68R
ROCKY MOUNT    CLOUDY    65  45  48 NW15G25   29.68R
WASHINGTON     CLEAR     68  61  78 SW6       29.64R
WHITEVILLE     CLEAR     71  52  51 SW7       29.73R

$$

AMZ130-135-150-152-154-156-158-170-250-252-270-ANZ085-086-088-633-658-670-260200-
MARINE OBSERVATIONS

STATION/POSITION TIME  TEMP    WIND        PRES    WAVE   SWELL
                       AIR SEA DIR/SP/G            HT/PER HT/PER
                 (UTC) (F)     (DEG/KT/KT) (MB)    (FT/S) (FT/S)
CHESAPEAKE LIGHT NOT AVBL
64 E VA BEACH    0050   60 53  200/ 21/ 25 1000.8    7/11   5/11
DUCK             0100   67 50  210/ 19/ 25 1001.2
2 E DUCK         0100      51                N/A     4/11   2/11
OREGON INLET     0100   63 60  210/ 22/ 25 1002.7
13E OREGON INLT  NOT AVBL
HATTERAS CG      0100   68 64  220/ 16/ 25 1004.1
DIAMOND BUOY     0050   74 75  230/ 29/ 35 1003.6    8/11   5/11
CAPE LOOKOUT     0100   67     230/ 17/ 28 1005.1
BEAUFORT LAB     0100   66 64  230/  9/ 17 1004.5
30 SE NEW RVR IN 0108   68     240/ 23/ 31 1005.7
30 SE NEW RVR IN 0113      67                N/A     7/11   3/11
27 SE WRIGHTSVLE 0108   67 64  240/ 19/ 25 1005.2
5 SE WRIGHTSVLE  0108   63 59  230/ 12/ 17 1006.4
225 S CAPE HAT   0050   72 71  230/ 14/ 16 1010.6    7/10   7/10
41 SE CHARLESTON 0050   70 70  220/ 17/ 21 1008.3    6/10   5/10

$$




USA.gov is the U.S. government's official web portal to all federal, state and local government web resources and services.